| time (UTC) | temp F | wind direction | speed MPH | gust MPH | rain 1hr in | rain 24hr in | rain mn in | humidity % | barometer mb |
| 20260902170933 | 71 | 61 | 12.0 | 18.0 | 0.00 | 0.00 | 0.00 | 99 | 1025.7 |
| 20260902170428 | 71 | 61 | 12.0 | 18.0 | 0.00 | 0.00 | 0.00 | 99 | 1025.7 |
| 20260902165924 | 72 | 57 | 16.0 | 21.0 | 0.00 | 0.00 | 0.00 | 99 | 1025.7 |
| 20260902165422 | 72 | 57 | 16.0 | 21.0 | 0.00 | 0.00 | 0.00 | 99 | 1025.7 |
| 20260902164917 | 74 | 69 | 10.0 | 14.0 | 0.00 | 0.00 | 0.00 | 99 | 1026.0 |
| 20260902164412 | 74 | 69 | 10.0 | 14.0 | 0.00 | 0.00 | 0.00 | 99 | 1026.0 |
| 20260902163911 | 72 | 77 | 15.0 | 19.0 | 0.00 | 0.00 | 0.00 | 99 | 1026.1 |
| 20260902163407 | 72 | 77 | 15.0 | 19.0 | 0.00 | 0.00 | 0.00 | 99 | 1026.1 |
| 20260902162904 | 74 | 43 | 4.0 | 8.0 | 0.00 | 0.00 | 0.00 | 99 | 1026.1 |
| 20260902162400 | 74 | 43 | 4.0 | 8.0 | 0.00 | 0.00 | 0.00 | 99 | 1026.1 |
| 20260902161900 | 73 | 356 | 5.0 | 9.0 | 0.00 | 0.00 | 0.00 | 99 | 1026.1 |
| 20260902161355 | 73 | 356 | 5.0 | 9.0 | 0.00 | 0.00 | 0.00 | 99 | 1026.1 |
| 20260902160851 | 74 | 160 | 8.0 | 13.0 | 0.00 | 0.00 | 0.00 | 99 | 1025.7 |
| 20260902160346 | 74 | 160 | 8.0 | 13.0 | 0.00 | 0.00 | 0.00 | 99 | 1025.7 |
| 20260902155844 | 73 | 42 | 3.0 | 6.0 | 0.00 | 0.00 | 0.00 | 99 | 1026.2 |
| 20260902155343 | 73 | 42 | 3.0 | 6.0 | 0.00 | 0.00 | 0.00 | 99 | 1026.2 |
| 20260902154838 | 70 | 209 | 4.0 | 6.0 | 0.00 | 0.00 | 0.00 | 99 | 1026.1 |
| 20260902154334 | 70 | 209 | 4.0 | 6.0 | 0.00 | 0.00 | 0.00 | 99 | 1026.1 |
| 20260902153833 | 70 | 74 | 7.0 | 9.0 | 0.00 | 0.00 | 0.00 | 99 | 1025.8 |
| 20260902153332 | 69 | 334 | 3.0 | 4.0 | 0.00 | 0.00 | 0.00 | 99 | 1026.2 |
| 20260902152828 | 69 | 334 | 3.0 | 4.0 | 0.00 | 0.00 | 0.00 | 99 | 1026.2 |
| 20260902152324 | 69 | 291 | 4.0 | 6.0 | 0.00 | 0.00 | 0.00 | 99 | 1026.0 |
| 20260902151819 | 69 | 291 | 4.0 | 6.0 | 0.00 | 0.00 | 0.00 | 99 | 1026.0 |
| 20260902151315 | 69 | 96 | 1.0 | 1.0 | 0.00 | 0.00 | 0.00 | 99 | 1026.1 |
| 20260902150809 | 69 | 96 | 1.0 | 1.0 | 0.00 | 0.00 | 0.00 | 99 | 1026.1 |
| 20260902150306 | 69 | 135 | 1.0 | 1.0 | 0.00 | 0.00 | 0.00 | 99 | 1026.0 |
| 20260902145805 | 69 | 135 | 1.0 | 1.0 | 0.00 | 0.00 | 0.00 | 99 | 1026.0 |
| 20260902145300 | 68 | 278 | 4.0 | 4.0 | 0.00 | 0.00 | 0.00 | 99 | 1025.7 |
| 20260902144755 | 68 | 278 | 4.0 | 4.0 | 0.00 | 0.00 | 0.00 | 99 | 1025.7 |
| 20260902144251 | 70 | 150 | 0.0 | 0.0 | 0.00 | 0.00 | 0.00 | 99 | 1025.8 |
| 20260902143746 | 70 | 150 | 0.0 | 0.0 | 0.00 | 0.00 | 0.00 | 99 | 1025.8 |
| 20260902143241 | 68 | 82 | 2.0 | 2.0 | 0.00 | 0.00 | 0.00 | 99 | 1025.7 |
| 20260902142736 | 68 | 82 | 2.0 | 2.0 | 0.00 | 0.00 | 0.00 | 99 | 1025.7 |
| 20260902142227 | 68 | 118 | 1.0 | 1.0 | 0.00 | 0.00 | 0.00 | 99 | 1025.8 |
| 20260902141726 | 68 | 118 | 1.0 | 1.0 | 0.00 | 0.00 | 0.00 | 99 | 1025.8 |
| 20260902141223 | 64 | 153 | 0.0 | 0.0 | 0.00 | 0.00 | 0.00 | 99 | 1026.0 |
| 20260902140712 | 64 | 153 | 0.0 | 0.0 | 0.00 | 0.00 | 0.00 | 99 | 1026.0 |
| 20260902140213 | 63 | 146 | 1.0 | 1.0 | 0.00 | 0.00 | 0.00 | 99 | 1026.0 |
| 20260902135712 | 63 | 146 | 1.0 | 1.0 | 0.00 | 0.00 | 0.00 | 99 | 1026.0 |
| 20260902135208 | 61 | 79 | 3.0 | 4.0 | 0.00 | 0.00 | 0.00 | 99 | 1026.1 |
| 20260902134707 | 61 | 79 | 3.0 | 4.0 | 0.00 | 0.00 | 0.00 | 99 | 1026.1 |
| 20260902134203 | 60 | 248 | 4.0 | 6.0 | 0.00 | 0.00 | 0.00 | 99 | 1025.6 |
| 20260902133657 | 60 | 248 | 4.0 | 6.0 | 0.00 | 0.00 | 0.00 | 99 | 1025.6 |
| 20260902133156 | 62 | 340 | 4.0 | 4.0 | 0.00 | 0.00 | 0.00 | 99 | 1025.6 |
| 20260902132653 | 62 | 340 | 4.0 | 4.0 | 0.00 | 0.00 | 0.00 | 99 | 1025.6 |
| 20260902132148 | 62 | 166 | 7.0 | 8.0 | 0.00 | 0.00 | 0.00 | 99 | 1025.6 |
| 20260902131643 | 62 | 166 | 7.0 | 8.0 | 0.00 | 0.00 | 0.00 | 99 | 1025.6 |
| 20260902131138 | 62 | 137 | 8.0 | 10.0 | 0.00 | 0.00 | 0.00 | 99 | 1025.6 |
| 20260902130634 | 62 | 137 | 8.0 | 10.0 | 0.00 | 0.00 | 0.00 | 99 | 1025.6 |
| 20260902130129 | 62 | 163 | 10.0 | 11.0 | 0.00 | 0.00 | 0.00 | 99 | 1025.7 |
| 20260902125625 | 62 | 163 | 10.0 | 11.0 | 0.00 | 0.00 | 0.00 | 99 | 1025.7 |
| 20260902125120 | 61 | 159 | 7.0 | 8.0 | 0.00 | 0.00 | 0.00 | 99 | 1025.7 |
| 20260902124617 | 61 | 159 | 7.0 | 8.0 | 0.00 | 0.00 | 0.00 | 99 | 1025.7 |
| 20260902124117 | 60 | 136 | 7.0 | 8.0 | 0.00 | 0.00 | 0.00 | 99 | 1025.6 |
| 20260902123613 | 60 | 136 | 7.0 | 8.0 | 0.00 | 0.00 | 0.00 | 99 | 1025.6 |
| 20260902123108 | 59 | 147 | 8.0 | 9.0 | 0.00 | 0.00 | 0.00 | 99 | 1025.8 |
| 20260902122607 | 59 | 147 | 8.0 | 9.0 | 0.00 | 0.00 | 0.00 | 99 | 1025.8 |
| 20260902122103 | 60 | 148 | 6.0 | 7.0 | 0.00 | 0.00 | 0.00 | 99 | 1025.6 |
| 20260902121602 | 60 | 148 | 6.0 | 7.0 | 0.00 | 0.00 | 0.00 | 99 | 1025.6 |
| 20260902121057 | 59 | 121 | 3.0 | 3.0 | 0.00 | 0.00 | 0.00 | 99 | 1025.8 |
| 20260902120553 | 59 | 121 | 3.0 | 3.0 | 0.00 | 0.00 | 0.00 | 99 | 1025.8 |
| 20260902120049 | 60 | 183 | 1.0 | 2.0 | 0.00 | 0.00 | 0.00 | 99 | 1025.8 |
| 20260902115544 | 60 | 183 | 1.0 | 2.0 | 0.00 | 0.00 | 0.00 | 99 | 1025.8 |
| 20260902115041 | 60 | 145 | 0.0 | 0.0 | 0.00 | 0.00 | 0.00 | 99 | 1025.8 |
| 20260902114536 | 60 | 145 | 0.0 | 0.0 | 0.00 | 0.00 | 0.00 | 99 | 1025.8 |
| 20260902114030 | 61 | 164 | 1.0 | 1.0 | 0.00 | 0.00 | 0.00 | 99 | 1025.7 |
| 20260902113526 | 61 | 164 | 1.0 | 1.0 | 0.00 | 0.00 | 0.00 | 99 | 1025.7 |
| 20260902113021 | 60 | 132 | 0.0 | 0.0 | 0.00 | 0.00 | 0.00 | 99 | 1025.8 |
| 20260902112516 | 60 | 132 | 0.0 | 0.0 | 0.00 | 0.00 | 0.00 | 99 | 1025.8 |
| 20260902112013 | 61 | 125 | 0.0 | 1.0 | 0.00 | 0.00 | 0.00 | 99 | 1025.7 |
| 20260902111509 | 61 | 125 | 0.0 | 1.0 | 0.00 | 0.00 | 0.00 | 99 | 1025.7 |
| 20260902111004 | 60 | 145 | 2.0 | 3.0 | 0.00 | 0.00 | 0.00 | 99 | 1025.5 |
| 20260902110500 | 60 | 145 | 2.0 | 3.0 | 0.00 | 0.00 | 0.00 | 99 | 1025.5 |
| 20260902105955 | 62 | 112 | 5.0 | 7.0 | 0.00 | 0.00 | 0.00 | 99 | 1025.7 |
| 20260902105450 | 62 | 112 | 5.0 | 7.0 | 0.00 | 0.00 | 0.00 | 99 | 1025.7 |
| 20260902104944 | 64 | 33 | 11.0 | 13.0 | 0.00 | 0.00 | 0.00 | 99 | 1025.5 |
| 20260902104440 | 64 | 33 | 11.0 | 13.0 | 0.00 | 0.00 | 0.00 | 99 | 1025.5 |
| 20260902103934 | 64 | 47 | 11.0 | 14.0 | 0.00 | 0.00 | 0.00 | 99 | 1025.5 |
| 20260902103430 | 64 | 47 | 11.0 | 14.0 | 0.00 | 0.00 | 0.00 | 99 | 1025.5 |
| 20260902102925 | 62 | 77 | 10.0 | 13.0 | 0.00 | 0.00 | 0.00 | 99 | 1025.6 |
| 20260902102422 | 62 | 77 | 10.0 | 13.0 | 0.00 | 0.00 | 0.00 | 99 | 1025.6 |
| 20260902101918 | 59 | 84 | 11.0 | 14.0 | 0.00 | 0.00 | 0.00 | 99 | 1025.7 |
| 20260902101412 | 59 | 84 | 11.0 | 14.0 | 0.00 | 0.00 | 0.00 | 99 | 1025.7 |
| 20260902100911 | 57 | 135 | 10.0 | 11.0 | 0.00 | 0.00 | 0.00 | 99 | 1025.7 |
| 20260902100406 | 57 | 135 | 10.0 | 11.0 | 0.00 | 0.00 | 0.00 | 99 | 1025.7 |
| 20260902095901 | 58 | 90 | 12.0 | 14.0 | 0.00 | 0.00 | 0.00 | 99 | 1025.6 |
| 20260902095401 | 58 | 90 | 12.0 | 14.0 | 0.00 | 0.00 | 0.00 | 99 | 1025.6 |
| 20260902094855 | 59 | 103 | 12.0 | 14.0 | 0.00 | 0.00 | 0.00 | 99 | 1025.7 |
| 20260902094351 | 59 | 103 | 12.0 | 14.0 | 0.00 | 0.00 | 0.00 | 99 | 1025.7 |
| 20260902093850 | 59 | 103 | 9.0 | 10.0 | 0.00 | 0.00 | 0.00 | 99 | 1025.6 |
| 20260902093346 | 59 | 103 | 9.0 | 10.0 | 0.00 | 0.00 | 0.00 | 99 | 1025.6 |
| 20260902092844 | 60 | 76 | 11.0 | 13.0 | 0.00 | 0.00 | 0.00 | 99 | 1025.7 |
| 20260902092340 | 60 | 76 | 11.0 | 13.0 | 0.00 | 0.00 | 0.00 | 99 | 1025.7 |
| 20260902091835 | 60 | 98 | 11.0 | 11.0 | 0.00 | 0.00 | 0.00 | 99 | 1025.8 |
| 20260902091330 | 60 | 98 | 11.0 | 11.0 | 0.00 | 0.00 | 0.00 | 99 | 1025.8 |
| 20260902090827 | 59 | 87 | 11.0 | 13.0 | 0.00 | 0.00 | 0.00 | 99 | 1025.7 |
| 20260902090326 | 59 | 87 | 11.0 | 13.0 | 0.00 | 0.00 | 0.00 | 99 | 1025.7 |
| 20260902085825 | 59 | 106 | 12.0 | 14.0 | 0.00 | 0.00 | 0.00 | 99 | 1025.6 |
| 20260902085321 | 59 | 106 | 12.0 | 14.0 | 0.00 | 0.00 | 0.00 | 99 | 1025.6 |
| 20260902084816 | 59 | 106 | 11.0 | 13.0 | 0.00 | 0.00 | 0.00 | 99 | 1025.7 |
| 20260902084313 | 59 | 106 | 11.0 | 13.0 | 0.00 | 0.00 | 0.00 | 99 | 1025.7 |
| 20260902083807 | 58 | 107 | 9.0 | 10.0 | 0.00 | 0.00 | 0.00 | 99 | 1025.8 |
| 20260902083302 | 58 | 107 | 9.0 | 10.0 | 0.00 | 0.00 | 0.00 | 99 | 1025.8 |
| 20260902082802 | 57 | 114 | 11.0 | 13.0 | 0.00 | 0.00 | 0.00 | 99 | 1026.0 |
| 20260902082259 | 57 | 114 | 11.0 | 13.0 | 0.00 | 0.00 | 0.00 | 99 | 1026.0 |
| 20260902081754 | 56 | 93 | 1.0 | 2.0 | 0.00 | 0.00 | 0.00 | 99 | 1026.0 |
| 20260902081250 | 56 | 93 | 1.0 | 2.0 | 0.00 | 0.00 | 0.00 | 99 | 1026.0 |
| 20260902080745 | 56 | 169 | 3.0 | 3.0 | 0.00 | 0.00 | 0.00 | 99 | 1026.1 |
| 20260902080242 | 56 | 154 | 3.0 | 4.0 | 0.00 | 0.00 | 0.00 | 99 | 1026.0 |
| 20260902075741 | 56 | 154 | 3.0 | 4.0 | 0.00 | 0.00 | 0.00 | 99 | 1026.0 |
| 20260902075238 | 56 | 126 | 0.0 | 0.0 | 0.00 | 0.00 | 0.00 | 99 | 1026.2 |
| 20260902074737 | 56 | 126 | 0.0 | 0.0 | 0.00 | 0.00 | 0.00 | 99 | 1026.2 |
| 20260902074233 | 57 | 139 | 0.0 | 0.0 | 0.00 | 0.00 | 0.00 | 99 | 1026.2 |
| 20260902073728 | 57 | 139 | 0.0 | 0.0 | 0.00 | 0.00 | 0.00 | 99 | 1026.2 |
| 20260902073224 | 57 | 174 | 1.0 | 2.0 | 0.00 | 0.00 | 0.00 | 99 | 1025.8 |
| 20260902072721 | 57 | 174 | 1.0 | 2.0 | 0.00 | 0.00 | 0.00 | 99 | 1025.8 |
| 20260902072216 | 57 | 149 | 1.0 | 2.0 | 0.00 | 0.00 | 0.00 | 99 | 1026.1 |
| 20260902071712 | 57 | 149 | 1.0 | 2.0 | 0.00 | 0.00 | 0.00 | 99 | 1026.1 |
| 20260902071208 | 58 | 124 | 3.0 | 3.0 | 0.00 | 0.00 | 0.00 | 99 | 1026.2 |
| 20260902070704 | 58 | 124 | 3.0 | 3.0 | 0.00 | 0.00 | 0.00 | 99 | 1026.2 |
| 20260902070203 | 59 | 149 | 5.0 | 7.0 | 0.00 | 0.00 | 0.00 | 99 | 1025.8 |
| 20260902065701 | 59 | 149 | 5.0 | 7.0 | 0.00 | 0.00 | 0.00 | 99 | 1025.8 |
| 20260902065157 | 59 | 114 | 6.0 | 8.0 | 0.00 | 0.00 | 0.00 | 99 | 1026.0 |
| 20260902064652 | 59 | 114 | 6.0 | 8.0 | 0.00 | 0.00 | 0.00 | 99 | 1026.0 |
| 20260902064148 | 60 | 100 | 11.0 | 13.0 | 0.00 | 0.00 | 0.00 | 99 | 1025.8 |
| 20260902063644 | 60 | 100 | 11.0 | 13.0 | 0.00 | 0.00 | 0.00 | 99 | 1025.8 |
| 20260902063143 | 59 | 111 | 7.0 | 8.0 | 0.00 | 0.00 | 0.00 | 99 | 1026.0 |
| 20260902062638 | 59 | 111 | 7.0 | 8.0 | 0.00 | 0.00 | 0.00 | 99 | 1026.0 |
| 20260902062133 | 60 | 100 | 9.0 | 10.0 | 0.00 | 0.00 | 0.00 | 99 | 1026.0 |
| 20260902061632 | 60 | 100 | 9.0 | 10.0 | 0.00 | 0.00 | 0.00 | 99 | 1026.0 |
| 20260902061128 | 60 | 104 | 10.0 | 11.0 | 0.00 | 0.00 | 0.00 | 99 | 1026.0 |
| 20260902060624 | 60 | 104 | 10.0 | 11.0 | 0.00 | 0.00 | 0.00 | 99 | 1026.0 |
| 20260902060120 | 60 | 122 | 9.0 | 10.0 | 0.00 | 0.00 | 0.00 | 99 | 1026.1 |
| 20260902055615 | 60 | 122 | 9.0 | 10.0 | 0.00 | 0.00 | 0.00 | 99 | 1026.1 |
| 20260902055111 | 60 | 145 | 6.0 | 6.0 | 0.00 | 0.00 | 0.00 | 99 | 1026.1 |
| 20260902054605 | 60 | 145 | 6.0 | 6.0 | 0.00 | 0.00 | 0.00 | 99 | 1026.1 |
| 20260902054101 | 61 | 127 | 8.0 | 8.0 | 0.00 | 0.00 | 0.00 | 99 | 1026.3 |
| 20260902053551 | 61 | 127 | 8.0 | 8.0 | 0.00 | 0.00 | 0.00 | 99 | 1026.3 |
| 20260902053050 | 61 | 147 | 5.0 | 6.0 | 0.00 | 0.00 | 0.00 | 99 | 1026.3 |
| 20260902052544 | 61 | 147 | 5.0 | 6.0 | 0.00 | 0.00 | 0.00 | 99 | 1026.3 |
| 20260902052040 | 61 | 140 | 7.0 | 8.0 | 0.00 | 0.00 | 0.00 | 99 | 1026.2 |
| 20260902051535 | 61 | 140 | 7.0 | 8.0 | 0.00 | 0.00 | 0.00 | 99 | 1026.2 |
| 20260902051034 | 62 | 156 | 3.0 | 3.0 | 0.00 | 0.00 | 0.00 | 99 | 1026.1 |
| 20260902050529 | 62 | 156 | 3.0 | 3.0 | 0.00 | 0.00 | 0.00 | 99 | 1026.1 |
| 20260902050024 | 62 | 113 | 9.0 | 11.0 | 0.00 | 0.00 | 0.00 | 99 | 1026.3 |
| 20260902045519 | 62 | 113 | 9.0 | 11.0 | 0.00 | 0.00 | 0.00 | 99 | 1026.3 |
| 20260902045016 | 61 | 119 | 9.0 | 9.0 | 0.00 | 0.00 | 0.00 | 99 | 1026.2 |
| 20260902044510 | 61 | 119 | 9.0 | 9.0 | 0.00 | 0.00 | 0.00 | 99 | 1026.2 |
| 20260902044006 | 62 | 123 | 6.0 | 7.0 | 0.00 | 0.00 | 0.00 | 99 | 1026.3 |
| 20260902043500 | 62 | 123 | 6.0 | 7.0 | 0.00 | 0.00 | 0.00 | 99 | 1026.3 |
| 20260902042955 | 63 | 121 | 7.0 | 8.0 | 0.00 | 0.00 | 0.00 | 99 | 1026.3 |
| 20260902042455 | 63 | 121 | 7.0 | 8.0 | 0.00 | 0.00 | 0.00 | 99 | 1026.3 |
| 20260902041950 | 63 | 112 | 4.0 | 4.0 | 0.00 | 0.00 | 0.00 | 99 | 1026.3 |
| 20260902041444 | 63 | 112 | 4.0 | 4.0 | 0.00 | 0.00 | 0.00 | 99 | 1026.3 |
| 20260902040939 | 62 | 125 | 6.0 | 8.0 | 0.00 | 0.00 | 0.00 | 99 | 1026.5 |
| 20260902040433 | 62 | 125 | 6.0 | 8.0 | 0.00 | 0.00 | 0.00 | 99 | 1026.5 |
| 20260902035932 | 63 | 159 | 8.0 | 9.0 | 0.00 | 0.00 | 0.00 | 99 | 1026.1 |
| 20260902035427 | 63 | 159 | 8.0 | 9.0 | 0.00 | 0.00 | 0.00 | 99 | 1026.1 |
| 20260902034927 | 64 | 105 | 5.0 | 7.0 | 0.00 | 0.00 | 0.00 | 99 | 1026.3 |
| 20260902034421 | 64 | 105 | 5.0 | 7.0 | 0.00 | 0.00 | 0.00 | 99 | 1026.3 |
| 20260902033921 | 64 | 91 | 4.0 | 6.0 | 0.00 | 0.00 | 0.00 | 99 | 1026.3 |
| 20260902033415 | 64 | 91 | 4.0 | 6.0 | 0.00 | 0.00 | 0.00 | 99 | 1026.3 |
| 20260902032914 | 64 | 137 | 4.0 | 4.0 | 0.00 | 0.00 | 0.00 | 99 | 1026.0 |
| 20260902032408 | 64 | 137 | 4.0 | 4.0 | 0.00 | 0.00 | 0.00 | 99 | 1026.0 |
| 20260902031903 | 65 | 112 | 3.0 | 3.0 | 0.00 | 0.00 | 0.00 | 99 | 1026.2 |
| 20260902031358 | 65 | 112 | 3.0 | 3.0 | 0.00 | 0.00 | 0.00 | 99 | 1026.2 |
| 20260902030855 | 64 | 139 | 1.0 | 1.0 | 0.00 | 0.00 | 0.00 | 99 | 1026.1 |
| 20260902030349 | 64 | 139 | 1.0 | 1.0 | 0.00 | 0.00 | 0.00 | 99 | 1026.1 |
| 20260902025848 | 65 | 161 | 7.0 | 8.0 | 0.00 | 0.00 | 0.00 | 99 | 1025.8 |
| 20260902025344 | 65 | 161 | 7.0 | 8.0 | 0.00 | 0.00 | 0.00 | 99 | 1025.8 |
| 20260902024844 | 65 | 155 | 9.0 | 9.0 | 0.00 | 0.00 | 0.00 | 99 | 1025.7 |
| 20260902024339 | 65 | 155 | 9.0 | 9.0 | 0.00 | 0.00 | 0.00 | 99 | 1025.7 |
| 20260902023834 | 65 | 145 | 8.0 | 8.0 | 0.00 | 0.00 | 0.00 | 99 | 1025.6 |
| 20260902023331 | 65 | 145 | 8.0 | 8.0 | 0.00 | 0.00 | 0.00 | 99 | 1025.6 |
| 20260902022829 | 66 | 82 | 7.0 | 9.0 | 0.00 | 0.00 | 0.00 | 99 | 1025.5 |
| 20260902022325 | 66 | 82 | 7.0 | 9.0 | 0.00 | 0.00 | 0.00 | 99 | 1025.5 |
| 20260902021821 | 65 | 91 | 3.0 | 3.0 | 0.00 | 0.00 | 0.00 | 99 | 1025.2 |
| 20260902021320 | 65 | 91 | 3.0 | 3.0 | 0.00 | 0.00 | 0.00 | 99 | 1025.2 |
| 20260902020816 | 65 | 85 | 5.0 | 6.0 | 0.00 | 0.00 | 0.00 | 99 | 1025.2 |
| 20260902020312 | 65 | 85 | 5.0 | 6.0 | 0.00 | 0.00 | 0.00 | 99 | 1025.2 |
| 20260902015807 | 65 | 74 | 5.0 | 6.0 | 0.00 | 0.00 | 0.00 | 99 | 1025.2 |
| 20260902015306 | 65 | 74 | 5.0 | 6.0 | 0.00 | 0.00 | 0.00 | 99 | 1025.2 |
| 20260902014759 | 66 | 99 | 6.0 | 7.0 | 0.00 | 0.00 | 0.00 | 99 | 1025.2 |
| 20260902014256 | 66 | 99 | 6.0 | 7.0 | 0.00 | 0.00 | 0.00 | 99 | 1025.2 |
| 20260902013754 | 66 | 111 | 11.0 | 13.0 | 0.00 | 0.00 | 0.00 | 99 | 1025.2 |
| 20260902013250 | 66 | 111 | 11.0 | 13.0 | 0.00 | 0.00 | 0.00 | 99 | 1025.2 |
| 20260902012745 | 66 | 117 | 14.0 | 16.0 | 0.00 | 0.00 | 0.00 | 99 | 1025.1 |
| 20260902012241 | 66 | 117 | 14.0 | 16.0 | 0.00 | 0.00 | 0.00 | 99 | 1025.1 |
| 20260902011736 | 66 | 123 | 17.0 | 22.0 | 0.00 | 0.00 | 0.00 | 99 | 1024.8 |
| 20260902011236 | 66 | 123 | 17.0 | 22.0 | 0.00 | 0.00 | 0.00 | 99 | 1024.8 |
| 20260902010735 | 67 | 89 | 11.0 | 13.0 | 0.00 | 0.00 | 0.00 | 99 | 1025.1 |
| 20260902010231 | 67 | 89 | 11.0 | 13.0 | 0.00 | 0.00 | 0.00 | 99 | 1025.1 |
| 20260902005729 | 68 | 98 | 4.0 | 6.0 | 0.00 | 0.00 | 0.00 | 99 | 1025.3 |
| 20260902005225 | 68 | 98 | 4.0 | 6.0 | 0.00 | 0.00 | 0.00 | 99 | 1025.3 |
| 20260902004725 | 68 | 117 | 1.0 | 2.0 | 0.00 | 0.00 | 0.00 | 99 | 1025.6 |
| 20260902004220 | 68 | 117 | 1.0 | 2.0 | 0.00 | 0.00 | 0.00 | 99 | 1025.6 |
| 20260902003715 | 68 | 79 | 11.0 | 15.0 | 0.00 | 0.00 | 0.00 | 99 | 1025.5 |
| 20260902003210 | 68 | 79 | 11.0 | 15.0 | 0.00 | 0.00 | 0.00 | 99 | 1025.5 |
| 20260902002706 | 68 | 117 | 11.0 | 13.0 | 0.00 | 0.00 | 0.00 | 99 | 1025.6 |
| 20260902002200 | 66 | 119 | 14.0 | 16.0 | 0.00 | 0.00 | 0.00 | 99 | 1025.7 |
| 20260902001656 | 66 | 119 | 14.0 | 16.0 | 0.00 | 0.00 | 0.00 | 99 | 1025.7 |
| 20260902001155 | 67 | 77 | 16.0 | 17.0 | 0.00 | 0.00 | 0.00 | 99 | 1025.8 |
| 20260902000650 | 67 | 77 | 16.0 | 17.0 | 0.00 | 0.00 | 0.00 | 99 | 1025.8 |
| 20260902000145 | 68 | 62 | 14.0 | 16.0 | 0.00 | 0.00 | 0.00 | 99 | 1025.7 |
| 20260901235639 | 68 | 62 | 14.0 | 16.0 | 0.00 | 0.00 | 0.00 | 99 | 1025.7 |
| 20260901235135 | 69 | 64 | 6.0 | 7.0 | 0.00 | 0.00 | 0.00 | 99 | 1026.0 |
| 20260901234634 | 69 | 64 | 6.0 | 7.0 | 0.00 | 0.00 | 0.00 | 99 | 1026.0 |
| 20260901234129 | 68 | 68 | 12.0 | 14.0 | 0.00 | 0.00 | 0.00 | 99 | 1026.1 |
| 20260901233624 | 68 | 68 | 12.0 | 14.0 | 0.00 | 0.00 | 0.00 | 99 | 1026.1 |
| 20260901233120 | 65 | 107 | 8.0 | 8.0 | 0.00 | 0.00 | 0.00 | 99 | 1026.0 |
| 20260901232620 | 65 | 107 | 8.0 | 8.0 | 0.00 | 0.00 | 0.00 | 99 | 1026.0 |
| 20260901232115 | 63 | 154 | 12.0 | 15.0 | 0.00 | 0.00 | 0.00 | 99 | 1026.1 |
| 20260901231612 | 63 | 154 | 12.0 | 15.0 | 0.00 | 0.00 | 0.00 | 99 | 1026.1 |
| 20260901231108 | 63 | 119 | 11.0 | 13.0 | 0.00 | 0.00 | 0.00 | 99 | 1026.3 |
| 20260901230603 | 63 | 119 | 11.0 | 13.0 | 0.00 | 0.00 | 0.00 | 99 | 1026.3 |
| 20260901230057 | 64 | 75 | 11.0 | 13.0 | 0.00 | 0.00 | 0.00 | 99 | 1026.5 |
| 20260901225552 | 64 | 75 | 11.0 | 13.0 | 0.00 | 0.00 | 0.00 | 99 | 1026.5 |
| 20260901225052 | 62 | 156 | 10.0 | 11.0 | 0.00 | 0.00 | 0.00 | 99 | 1026.1 |
| 20260901224548 | 62 | 156 | 10.0 | 11.0 | 0.00 | 0.00 | 0.00 | 99 | 1026.1 |
| 20260901224044 | 60 | 147 | 14.0 | 15.0 | 0.00 | 0.00 | 0.00 | 99 | 1026.3 |
| 20260901223539 | 60 | 147 | 14.0 | 15.0 | 0.00 | 0.00 | 0.00 | 99 | 1026.3 |
| 20260901223035 | 60 | 91 | 17.0 | 21.0 | 0.00 | 0.00 | 0.00 | 99 | 1026.2 |
| 20260901222531 | 60 | 91 | 17.0 | 21.0 | 0.00 | 0.00 | 0.00 | 99 | 1026.2 |
| 20260901222026 | 60 | 101 | 24.0 | 31.0 | 0.00 | 0.00 | 0.00 | 99 | 1025.8 |
| 20260901221522 | 60 | 101 | 24.0 | 31.0 | 0.00 | 0.00 | 0.00 | 99 | 1025.8 |
| 20260901221012 | 66 | 138 | 28.0 | 31.0 | 0.00 | 0.00 | 0.00 | 99 | 1026.0 |
| 20260901220511 | 66 | 138 | 28.0 | 31.0 | 0.00 | 0.00 | 0.00 | 99 | 1026.0 |
| 20260901220010 | 73 | 82 | 9.0 | 10.0 | 0.00 | 0.00 | 0.00 | 99 | 1025.3 |
| 20260901215508 | 73 | 82 | 9.0 | 10.0 | 0.00 | 0.00 | 0.00 | 99 | 1025.3 |
| 20260901215003 | 74 | 140 | 11.0 | 11.0 | 0.00 | 0.00 | 0.00 | 99 | 1025.2 |
| 20260901214501 | 74 | 140 | 11.0 | 11.0 | 0.00 | 0.00 | 0.00 | 99 | 1025.2 |
| 20260901213955 | 76 | 98 | 9.0 | 11.0 | 0.00 | 0.00 | 0.00 | 99 | 1025.2 |
| 20260901213451 | 76 | 98 | 9.0 | 11.0 | 0.00 | 0.00 | 0.00 | 99 | 1025.2 |
| 20260901212949 | 76 | 105 | 3.0 | 3.0 | 0.00 | 0.00 | 0.00 | 99 | 1025.2 |
| 20260901212445 | 76 | 105 | 3.0 | 3.0 | 0.00 | 0.00 | 0.00 | 99 | 1025.2 |
| 20260901211941 | 75 | 105 | 3.0 | 4.0 | 0.00 | 0.00 | 0.00 | 99 | 1025.2 |
| 20260901211436 | 75 | 105 | 3.0 | 4.0 | 0.00 | 0.00 | 0.00 | 99 | 1025.2 |
| 20260901210932 | 76 | 155 | 4.0 | 10.0 | 0.00 | 0.00 | 0.00 | 99 | 1025.7 |
| 20260901210428 | 76 | 155 | 4.0 | 10.0 | 0.00 | 0.00 | 0.00 | 99 | 1025.7 |
| 20260901205924 | 73 | 343 | 6.0 | 7.0 | 0.00 | 0.00 | 0.00 | 99 | 1025.7 |
| 20260901205419 | 73 | 343 | 6.0 | 7.0 | 0.00 | 0.00 | 0.00 | 99 | 1025.7 |
| 20260901204913 | 73 | 38 | 5.0 | 7.0 | 0.00 | 0.00 | 0.00 | 99 | 1025.7 |
| 20260901204410 | 73 | 38 | 5.0 | 7.0 | 0.00 | 0.00 | 0.00 | 99 | 1025.7 |
| 20260901203910 | 73 | 139 | 2.0 | 3.0 | 0.00 | 0.00 | 0.00 | 99 | 1025.8 |
| 20260901203404 | 73 | 139 | 2.0 | 3.0 | 0.00 | 0.00 | 0.00 | 99 | 1025.8 |
| 20260901202859 | 72 | 67 | 7.0 | 8.0 | 0.00 | 0.00 | 0.00 | 99 | 1026.1 |
| 20260901202354 | 72 | 67 | 7.0 | 8.0 | 0.00 | 0.00 | 0.00 | 99 | 1026.1 |
| 20260901201851 | 73 | 34 | 6.0 | 11.0 | 0.00 | 0.00 | 0.00 | 99 | 1026.0 |
| 20260901201350 | 73 | 34 | 6.0 | 11.0 | 0.00 | 0.00 | 0.00 | 99 | 1026.0 |
| 20260901200844 | 73 | 315 | 4.0 | 6.0 | 0.00 | 0.00 | 0.00 | 99 | 1026.0 |
| 20260901200339 | 73 | 315 | 4.0 | 6.0 | 0.00 | 0.00 | 0.00 | 99 | 1026.0 |
| 20260901195837 | 75 | 235 | 4.0 | 7.0 | 0.00 | 0.00 | 0.00 | 99 | 1026.1 |
| 20260901195330 | 75 | 235 | 4.0 | 7.0 | 0.00 | 0.00 | 0.00 | 99 | 1026.1 |
| 20260901194827 | 72 | 19 | 4.0 | 6.0 | 0.00 | 0.00 | 0.00 | 99 | 1025.8 |
| 20260901194321 | 72 | 19 | 4.0 | 6.0 | 0.00 | 0.00 | 0.00 | 99 | 1025.8 |
| 20260901193818 | 69 | 57 | 15.0 | 19.0 | 0.00 | 0.00 | 0.00 | 99 | 1026.1 |
| 20260901193316 | 69 | 57 | 15.0 | 19.0 | 0.00 | 0.00 | 0.00 | 99 | 1026.1 |
| 20260901192811 | 69 | 33 | 10.0 | 19.0 | 0.00 | 0.00 | 0.00 | 99 | 1025.6 |
| 20260901192307 | 69 | 33 | 10.0 | 19.0 | 0.00 | 0.00 | 0.00 | 99 | 1025.6 |
| 20260901191802 | 74 | 144 | 9.0 | 13.0 | 0.00 | 0.00 | 0.00 | 99 | 1025.8 |
| 20260901191258 | 74 | 144 | 9.0 | 13.0 | 0.00 | 0.00 | 0.00 | 99 | 1025.8 |
| 20260901190754 | 75 | 63 | 8.0 | 14.0 | 0.00 | 0.00 | 0.00 | 99 | 1026.1 |
| 20260901190247 | 75 | 63 | 8.0 | 14.0 | 0.00 | 0.00 | 0.00 | 99 | 1026.1 |
| 20260901185745 | 74 | 67 | 8.0 | 10.0 | 0.00 | 0.00 | 0.00 | 99 | 1026.1 |
| 20260901185240 | 74 | 67 | 8.0 | 10.0 | 0.00 | 0.00 | 0.00 | 99 | 1026.1 |
| 20260901184735 | 72 | 40 | 5.0 | 10.0 | 0.00 | 0.00 | 0.00 | 99 | 1026.5 |
| 20260901184230 | 72 | 40 | 5.0 | 10.0 | 0.00 | 0.00 | 0.00 | 99 | 1026.5 |
| 20260901183726 | 71 | 68 | 11.0 | 15.0 | 0.00 | 0.00 | 0.00 | 99 | 1026.5 |
| 20260901183225 | 71 | 68 | 11.0 | 15.0 | 0.00 | 0.00 | 0.00 | 99 | 1026.5 |
| 20260901182722 | 70 | 72 | 14.0 | 16.0 | 0.00 | 0.00 | 0.00 | 99 | 1026.5 |
| 20260901182220 | 70 | 72 | 14.0 | 16.0 | 0.00 | 0.00 | 0.00 | 99 | 1026.5 |
| 20260901181716 | 70 | 51 | 11.0 | 15.0 | 0.00 | 0.00 | 0.00 | 99 | 1026.7 |
| 20260901181210 | 70 | 51 | 11.0 | 15.0 | 0.00 | 0.00 | 0.00 | 99 | 1026.7 |
| 20260901180709 | 69 | 87 | 9.0 | 10.0 | 0.00 | 0.00 | 0.00 | 99 | 1026.5 |
| 20260901180208 | 69 | 87 | 9.0 | 10.0 | 0.00 | 0.00 | 0.00 | 99 | 1026.5 |
| 20260901175708 | 68 | 144 | 14.0 | 15.0 | 0.00 | 0.00 | 0.00 | 99 | 1026.6 |
| 20260901175208 | 68 | 144 | 14.0 | 15.0 | 0.00 | 0.00 | 0.00 | 99 | 1026.6 |
| 20260901174703 | 68 | 160 | 14.0 | 17.0 | 0.00 | 0.00 | 0.00 | 99 | 1026.5 |
| 20260901174159 | 68 | 160 | 14.0 | 17.0 | 0.00 | 0.00 | 0.00 | 99 | 1026.5 |
| 20260901173654 | 67 | 144 | 10.0 | 14.0 | 0.00 | 0.00 | 0.00 | 99 | 1026.7 |
| 20260901173150 | 67 | 144 | 10.0 | 14.0 | 0.00 | 0.00 | 0.00 | 99 | 1026.7 |
| 20260901172645 | 67 | 131 | 13.0 | 14.0 | 0.00 | 0.00 | 0.00 | 99 | 1026.6 |
| 20260901172143 | 67 | 131 | 13.0 | 14.0 | 0.00 | 0.00 | 0.00 | 99 | 1026.6 |
| 20260901171637 | 67 | 65 | 13.0 | 16.0 | 0.00 | 0.00 | 0.00 | 99 | 1026.6 |
| 20260901171136 | 67 | 65 | 13.0 | 16.0 | 0.00 | 0.00 | 0.00 | 99 | 1026.6 |